Index of /20260508/WXO-DD/model_rdps/10km/12/043
Name Last modified Size Description
Parent Directory -
20260508T12Z_MSC_RDPS_AbsoluteVorticity_IsbL-0250_RLatLon0.09_PT043H.grib2 2026-05-08 14:54 606K
20260508T12Z_MSC_RDPS_AbsoluteVorticity_IsbL-0500_RLatLon0.09_PT043H.grib2 2026-05-08 14:54 590K
20260508T12Z_MSC_RDPS_AbsoluteVorticity_IsbL-0700_RLatLon0.09_PT043H.grib2 2026-05-08 14:54 622K
20260508T12Z_MSC_RDPS_AbsoluteVorticity_IsbL-0850_RLatLon0.09_PT043H.grib2 2026-05-08 14:54 784K
20260508T12Z_MSC_RDPS_AirTemp_AGL-120m_RLatLon0.09_PT043H.grib2 2026-05-08 14:54 376K
20260508T12Z_MSC_RDPS_AirTemp_AGL-2m_RLatLon0.09_PT043H.grib2 2026-05-08 14:54 622K
20260508T12Z_MSC_RDPS_AirTemp_AGL-40m_RLatLon0.09_PT043H.grib2 2026-05-08 14:54 391K
20260508T12Z_MSC_RDPS_AirTemp_AGL-80m_RLatLon0.09_PT043H.grib2 2026-05-08 14:54 382K
20260508T12Z_MSC_RDPS_AirTemp_IsbL-0001_RLatLon0.09_PT043H.grib2 2026-05-08 14:54 231K
20260508T12Z_MSC_RDPS_AirTemp_IsbL-0005_RLatLon0.09_PT043H.grib2 2026-05-08 14:54 380K
20260508T12Z_MSC_RDPS_AirTemp_IsbL-0010_RLatLon0.09_PT043H.grib2 2026-05-08 14:54 300K
20260508T12Z_MSC_RDPS_AirTemp_IsbL-0020_RLatLon0.09_PT043H.grib2 2026-05-08 14:54 318K
20260508T12Z_MSC_RDPS_AirTemp_IsbL-0030_RLatLon0.09_PT043H.grib2 2026-05-08 14:54 335K
20260508T12Z_MSC_RDPS_AirTemp_IsbL-0050_RLatLon0.09_PT043H.grib2 2026-05-08 14:54 309K
20260508T12Z_MSC_RDPS_AirTemp_IsbL-0100_RLatLon0.09_PT043H.grib2 2026-05-08 14:54 430K
20260508T12Z_MSC_RDPS_AirTemp_IsbL-0150_RLatLon0.09_PT043H.grib2 2026-05-08 14:54 414K
20260508T12Z_MSC_RDPS_AirTemp_IsbL-0175_RLatLon0.09_PT043H.grib2 2026-05-08 14:54 409K
20260508T12Z_MSC_RDPS_AirTemp_IsbL-0200_RLatLon0.09_PT043H.grib2 2026-05-08 14:54 411K
20260508T12Z_MSC_RDPS_AirTemp_IsbL-0225_RLatLon0.09_PT043H.grib2 2026-05-08 14:54 412K
20260508T12Z_MSC_RDPS_AirTemp_IsbL-0250_RLatLon0.09_PT043H.grib2 2026-05-08 14:54 423K
20260508T12Z_MSC_RDPS_AirTemp_IsbL-0275_RLatLon0.09_PT043H.grib2 2026-05-08 14:54 405K
20260508T12Z_MSC_RDPS_AirTemp_IsbL-0300_RLatLon0.09_PT043H.grib2 2026-05-08 14:54 435K
20260508T12Z_MSC_RDPS_AirTemp_IsbL-0350_RLatLon0.09_PT043H.grib2 2026-05-08 14:54 422K
20260508T12Z_MSC_RDPS_AirTemp_IsbL-0400_RLatLon0.09_PT043H.grib2 2026-05-08 14:54 425K
20260508T12Z_MSC_RDPS_AirTemp_IsbL-0450_RLatLon0.09_PT043H.grib2 2026-05-08 14:54 434K
20260508T12Z_MSC_RDPS_AirTemp_IsbL-0500_RLatLon0.09_PT043H.grib2 2026-05-08 14:54 446K
20260508T12Z_MSC_RDPS_AirTemp_IsbL-0550_RLatLon0.09_PT043H.grib2 2026-05-08 14:54 464K
20260508T12Z_MSC_RDPS_AirTemp_IsbL-0600_RLatLon0.09_PT043H.grib2 2026-05-08 14:54 481K
20260508T12Z_MSC_RDPS_AirTemp_IsbL-0650_RLatLon0.09_PT043H.grib2 2026-05-08 14:54 496K
20260508T12Z_MSC_RDPS_AirTemp_IsbL-0700_RLatLon0.09_PT043H.grib2 2026-05-08 14:54 521K
20260508T12Z_MSC_RDPS_AirTemp_IsbL-0750_RLatLon0.09_PT043H.grib2 2026-05-08 14:54 564K
20260508T12Z_MSC_RDPS_AirTemp_IsbL-0800_RLatLon0.09_PT043H.grib2 2026-05-08 14:54 580K
20260508T12Z_MSC_RDPS_AirTemp_IsbL-0850_RLatLon0.09_PT043H.grib2 2026-05-08 14:54 507K
20260508T12Z_MSC_RDPS_AirTemp_IsbL-0875_RLatLon0.09_PT043H.grib2 2026-05-08 14:54 522K
20260508T12Z_MSC_RDPS_AirTemp_IsbL-0900_RLatLon0.09_PT043H.grib2 2026-05-08 14:54 526K
20260508T12Z_MSC_RDPS_AirTemp_IsbL-0925_RLatLon0.09_PT043H.grib2 2026-05-08 14:54 525K
20260508T12Z_MSC_RDPS_AirTemp_IsbL-0950_RLatLon0.09_PT043H.grib2 2026-05-08 14:54 525K
20260508T12Z_MSC_RDPS_AirTemp_IsbL-0970_RLatLon0.09_PT043H.grib2 2026-05-08 14:54 521K
20260508T12Z_MSC_RDPS_AirTemp_IsbL-0985_RLatLon0.09_PT043H.grib2 2026-05-08 14:54 506K
20260508T12Z_MSC_RDPS_AirTemp_IsbL-1000_RLatLon0.09_PT043H.grib2 2026-05-08 14:54 491K
20260508T12Z_MSC_RDPS_AirTemp_IsbL-1015_RLatLon0.09_PT043H.grib2 2026-05-08 14:54 495K
20260508T12Z_MSC_RDPS_Albedo_Sfc_RLatLon0.09_PT043H.grib2 2026-05-08 14:54 157K
20260508T12Z_MSC_RDPS_CAPE_Sfc_RLatLon0.09_PT043H.grib2 2026-05-08 14:54 1.7M
20260508T12Z_MSC_RDPS_CIN_Sfc_RLatLon0.09_PT043H.grib2 2026-05-08 14:54 1.2M
20260508T12Z_MSC_RDPS_CloudWater_EAtm_RLatLon0.09_PT043H.grib2 2026-05-08 14:54 226K
20260508T12Z_MSC_RDPS_ConvectivePrecip-Accum_Sfc_RLatLon0.09_PT043H.grib2 2026-05-08 14:54 1.1M
20260508T12Z_MSC_RDPS_DewPointDepression_AGL-2m_RLatLon0.09_PT043H.grib2 2026-05-08 14:54 397K
20260508T12Z_MSC_RDPS_DewPointDepression_IsbL-0001_RLatLon0.09_PT043H.grib2 2026-05-08 14:54 193
20260508T12Z_MSC_RDPS_DewPointDepression_IsbL-0005_RLatLon0.09_PT043H.grib2 2026-05-08 14:54 193
20260508T12Z_MSC_RDPS_DewPointDepression_IsbL-0010_RLatLon0.09_PT043H.grib2 2026-05-08 14:54 193
20260508T12Z_MSC_RDPS_DewPointDepression_IsbL-0020_RLatLon0.09_PT043H.grib2 2026-05-08 14:54 193
20260508T12Z_MSC_RDPS_DewPointDepression_IsbL-0030_RLatLon0.09_PT043H.grib2 2026-05-08 14:54 193
20260508T12Z_MSC_RDPS_DewPointDepression_IsbL-0050_RLatLon0.09_PT043H.grib2 2026-05-08 14:54 79K
20260508T12Z_MSC_RDPS_DewPointDepression_IsbL-0100_RLatLon0.09_PT043H.grib2 2026-05-08 14:54 114K
20260508T12Z_MSC_RDPS_DewPointDepression_IsbL-0150_RLatLon0.09_PT043H.grib2 2026-05-08 14:54 150K
20260508T12Z_MSC_RDPS_DewPointDepression_IsbL-0175_RLatLon0.09_PT043H.grib2 2026-05-08 14:54 172K
20260508T12Z_MSC_RDPS_DewPointDepression_IsbL-0200_RLatLon0.09_PT043H.grib2 2026-05-08 14:54 216K
20260508T12Z_MSC_RDPS_DewPointDepression_IsbL-0225_RLatLon0.09_PT043H.grib2 2026-05-08 14:54 264K
20260508T12Z_MSC_RDPS_DewPointDepression_IsbL-0250_RLatLon0.09_PT043H.grib2 2026-05-08 14:54 306K
20260508T12Z_MSC_RDPS_DewPointDepression_IsbL-0275_RLatLon0.09_PT043H.grib2 2026-05-08 14:54 312K
20260508T12Z_MSC_RDPS_DewPointDepression_IsbL-0300_RLatLon0.09_PT043H.grib2 2026-05-08 14:54 323K
20260508T12Z_MSC_RDPS_DewPointDepression_IsbL-0350_RLatLon0.09_PT043H.grib2 2026-05-08 14:54 325K
20260508T12Z_MSC_RDPS_DewPointDepression_IsbL-0400_RLatLon0.09_PT043H.grib2 2026-05-08 14:54 333K
20260508T12Z_MSC_RDPS_DewPointDepression_IsbL-0450_RLatLon0.09_PT043H.grib2 2026-05-08 14:54 339K
20260508T12Z_MSC_RDPS_DewPointDepression_IsbL-0500_RLatLon0.09_PT043H.grib2 2026-05-08 14:54 344K
20260508T12Z_MSC_RDPS_DewPointDepression_IsbL-0550_RLatLon0.09_PT043H.grib2 2026-05-08 14:54 356K
20260508T12Z_MSC_RDPS_DewPointDepression_IsbL-0600_RLatLon0.09_PT043H.grib2 2026-05-08 14:54 369K
20260508T12Z_MSC_RDPS_DewPointDepression_IsbL-0650_RLatLon0.09_PT043H.grib2 2026-05-08 14:54 379K
20260508T12Z_MSC_RDPS_DewPointDepression_IsbL-0700_RLatLon0.09_PT043H.grib2 2026-05-08 14:54 388K
20260508T12Z_MSC_RDPS_DewPointDepression_IsbL-0750_RLatLon0.09_PT043H.grib2 2026-05-08 14:54 408K
20260508T12Z_MSC_RDPS_DewPointDepression_IsbL-0800_RLatLon0.09_PT043H.grib2 2026-05-08 14:54 446K
20260508T12Z_MSC_RDPS_DewPointDepression_IsbL-0850_RLatLon0.09_PT043H.grib2 2026-05-08 14:54 473K
20260508T12Z_MSC_RDPS_DewPointDepression_IsbL-0875_RLatLon0.09_PT043H.grib2 2026-05-08 14:54 468K
20260508T12Z_MSC_RDPS_DewPointDepression_IsbL-0900_RLatLon0.09_PT043H.grib2 2026-05-08 14:54 454K
20260508T12Z_MSC_RDPS_DewPointDepression_IsbL-0925_RLatLon0.09_PT043H.grib2 2026-05-08 14:54 441K
20260508T12Z_MSC_RDPS_DewPointDepression_IsbL-0950_RLatLon0.09_PT043H.grib2 2026-05-08 14:54 435K
20260508T12Z_MSC_RDPS_DewPointDepression_IsbL-0970_RLatLon0.09_PT043H.grib2 2026-05-08 14:54 429K
20260508T12Z_MSC_RDPS_DewPointDepression_IsbL-0985_RLatLon0.09_PT043H.grib2 2026-05-08 14:54 424K
20260508T12Z_MSC_RDPS_DewPointDepression_IsbL-1000_RLatLon0.09_PT043H.grib2 2026-05-08 14:54 418K
20260508T12Z_MSC_RDPS_DewPointDepression_IsbL-1015_RLatLon0.09_PT043H.grib2 2026-05-08 14:54 409K
20260508T12Z_MSC_RDPS_DewPoint_AGL-2m_RLatLon0.09_PT043H.grib2 2026-05-08 14:54 388K
20260508T12Z_MSC_RDPS_DownwardLongwaveRadiationFlux-Accum_Sfc_RLatLon0.09_PT043H.grib2 2026-05-08 14:54 395K
20260508T12Z_MSC_RDPS_DownwardShortwaveRadiationFlux-Accum_NTAtm_RLatLon0.09_PT043H.grib2 2026-05-08 14:54 125K
20260508T12Z_MSC_RDPS_DownwardShortwaveRadiationFlux-Accum_Sfc_RLatLon0.09_PT043H.grib2 2026-05-08 14:54 562K
20260508T12Z_MSC_RDPS_FreezingRain-Accum1h_Sfc_RLatLon0.09_PT043H.grib2 2026-05-08 14:54 48K
20260508T12Z_MSC_RDPS_FreezingRain-Accum_Sfc_RLatLon0.09_PT043H.grib2 2026-05-08 14:54 150K
20260508T12Z_MSC_RDPS_GeopotentialHeight_IsbL-0001_RLatLon0.09_PT043H.grib2 2026-05-08 14:54 313K
20260508T12Z_MSC_RDPS_GeopotentialHeight_IsbL-0005_RLatLon0.09_PT043H.grib2 2026-05-08 14:54 306K
20260508T12Z_MSC_RDPS_GeopotentialHeight_IsbL-0010_RLatLon0.09_PT043H.grib2 2026-05-08 14:54 306K
20260508T12Z_MSC_RDPS_GeopotentialHeight_IsbL-0020_RLatLon0.09_PT043H.grib2 2026-05-08 14:54 306K
20260508T12Z_MSC_RDPS_GeopotentialHeight_IsbL-0030_RLatLon0.09_PT043H.grib2 2026-05-08 14:54 404K
20260508T12Z_MSC_RDPS_GeopotentialHeight_IsbL-0050_RLatLon0.09_PT043H.grib2 2026-05-08 14:54 308K
20260508T12Z_MSC_RDPS_GeopotentialHeight_IsbL-0100_RLatLon0.09_PT043H.grib2 2026-05-08 14:54 285K
20260508T12Z_MSC_RDPS_GeopotentialHeight_IsbL-0150_RLatLon0.09_PT043H.grib2 2026-05-08 14:54 227K
20260508T12Z_MSC_RDPS_GeopotentialHeight_IsbL-0175_RLatLon0.09_PT043H.grib2 2026-05-08 14:54 229K
20260508T12Z_MSC_RDPS_GeopotentialHeight_IsbL-0200_RLatLon0.09_PT043H.grib2 2026-05-08 14:54 231K
20260508T12Z_MSC_RDPS_GeopotentialHeight_IsbL-0225_RLatLon0.09_PT043H.grib2 2026-05-08 14:54 263K
20260508T12Z_MSC_RDPS_GeopotentialHeight_IsbL-0250_RLatLon0.09_PT043H.grib2 2026-05-08 14:54 266K
20260508T12Z_MSC_RDPS_GeopotentialHeight_IsbL-0275_RLatLon0.09_PT043H.grib2 2026-05-08 14:54 266K
20260508T12Z_MSC_RDPS_GeopotentialHeight_IsbL-0300_RLatLon0.09_PT043H.grib2 2026-05-08 14:54 235K
20260508T12Z_MSC_RDPS_GeopotentialHeight_IsbL-0350_RLatLon0.09_PT043H.grib2 2026-05-08 14:54 231K
20260508T12Z_MSC_RDPS_GeopotentialHeight_IsbL-0400_RLatLon0.09_PT043H.grib2 2026-05-08 14:54 227K
20260508T12Z_MSC_RDPS_GeopotentialHeight_IsbL-0450_RLatLon0.09_PT043H.grib2 2026-05-08 14:54 295K
20260508T12Z_MSC_RDPS_GeopotentialHeight_IsbL-0500_RLatLon0.09_PT043H.grib2 2026-05-08 14:54 290K
20260508T12Z_MSC_RDPS_GeopotentialHeight_IsbL-0550_RLatLon0.09_PT043H.grib2 2026-05-08 14:54 287K
20260508T12Z_MSC_RDPS_GeopotentialHeight_IsbL-0600_RLatLon0.09_PT043H.grib2 2026-05-08 14:54 283K
20260508T12Z_MSC_RDPS_GeopotentialHeight_IsbL-0650_RLatLon0.09_PT043H.grib2 2026-05-08 14:54 253K
20260508T12Z_MSC_RDPS_GeopotentialHeight_IsbL-0700_RLatLon0.09_PT043H.grib2 2026-05-08 14:54 252K
20260508T12Z_MSC_RDPS_GeopotentialHeight_IsbL-0750_RLatLon0.09_PT043H.grib2 2026-05-08 14:54 255K
20260508T12Z_MSC_RDPS_GeopotentialHeight_IsbL-0800_RLatLon0.09_PT043H.grib2 2026-05-08 14:54 347K
20260508T12Z_MSC_RDPS_GeopotentialHeight_IsbL-0850_RLatLon0.09_PT043H.grib2 2026-05-08 14:54 358K
20260508T12Z_MSC_RDPS_GeopotentialHeight_IsbL-0875_RLatLon0.09_PT043H.grib2 2026-05-08 14:54 359K
20260508T12Z_MSC_RDPS_GeopotentialHeight_IsbL-0900_RLatLon0.09_PT043H.grib2 2026-05-08 14:54 364K
20260508T12Z_MSC_RDPS_GeopotentialHeight_IsbL-0925_RLatLon0.09_PT043H.grib2 2026-05-08 14:54 368K
20260508T12Z_MSC_RDPS_GeopotentialHeight_IsbL-0950_RLatLon0.09_PT043H.grib2 2026-05-08 14:54 370K
20260508T12Z_MSC_RDPS_GeopotentialHeight_IsbL-0970_RLatLon0.09_PT043H.grib2 2026-05-08 14:54 375K
20260508T12Z_MSC_RDPS_GeopotentialHeight_IsbL-0985_RLatLon0.09_PT043H.grib2 2026-05-08 14:54 383K
20260508T12Z_MSC_RDPS_GeopotentialHeight_IsbL-1000_RLatLon0.09_PT043H.grib2 2026-05-08 14:54 395K
20260508T12Z_MSC_RDPS_GeopotentialHeight_IsbL-1015_RLatLon0.09_PT043H.grib2 2026-05-08 14:54 410K
20260508T12Z_MSC_RDPS_HighLowPressure_MSL_RLatLon0.09_PT043H.json 2026-05-08 14:46 20K
20260508T12Z_MSC_RDPS_Humidex_Sfc_RLatLon0.09_PT043H.grib2 2026-05-08 14:54 2.4M
20260508T12Z_MSC_RDPS_IcePellets-Accum1h_Sfc_RLatLon0.09_PT043H.grib2 2026-05-08 14:54 9.0K
20260508T12Z_MSC_RDPS_IcePellets-Accum_Sfc_RLatLon0.09_PT043H.grib2 2026-05-08 14:54 24K
20260508T12Z_MSC_RDPS_KIndex_Sfc_RLatLon0.09_PT043H.grib2 2026-05-08 14:54 2.5M
20260508T12Z_MSC_RDPS_LatentHeatNetFlux_Sfc_RLatLon0.09_PT043H.grib2 2026-05-08 14:54 418K
20260508T12Z_MSC_RDPS_LiftedIndex-MU-VT_IsbL-0500_RLatLon0.09_PT043H.grib2 2026-05-08 14:54 2.4M
20260508T12Z_MSC_RDPS_NetLongwaveRadiationFlux-Accum_Sfc_RLatLon0.09_PT043H.grib2 2026-05-08 14:54 534K
20260508T12Z_MSC_RDPS_NetShortwaveRadiationFlux-Accum_Sfc_RLatLon0.09_PT043H.grib2 2026-05-08 14:54 561K
20260508T12Z_MSC_RDPS_PlanetaryBoundaryLayerHeight_Sfc_RLatLon0.09_PT043H.grib2 2026-05-08 14:54 1.1M
20260508T12Z_MSC_RDPS_Precip-Accum1h_Sfc_RLatLon0.09_PT043H.grib2 2026-05-08 14:54 1.2M
20260508T12Z_MSC_RDPS_Precip-Accum_Sfc_RLatLon0.09_PT043H.grib2 2026-05-08 14:54 1.9M
20260508T12Z_MSC_RDPS_PrecipRate_Sfc_RLatLon0.09_PT043H.grib2 2026-05-08 14:54 169K
20260508T12Z_MSC_RDPS_PrecipType-Instant_Sfc_RLatLon0.09_PT043H.grib2 2026-05-08 14:54 601K
20260508T12Z_MSC_RDPS_Pressure-Trend3h_Sfc_RLatLon0.09_PT043H.grib2 2026-05-08 14:54 1.2M
20260508T12Z_MSC_RDPS_Pressure_MSL_RLatLon0.09_PT043H.grib2 2026-05-08 14:54 325K
20260508T12Z_MSC_RDPS_Pressure_PVU-1.5_RLatLon0.09_PT043H.grib2 2026-05-08 14:54 2.3M
20260508T12Z_MSC_RDPS_Pressure_PVU-1_RLatLon0.09_PT043H.grib2 2026-05-08 14:54 2.4M
20260508T12Z_MSC_RDPS_Pressure_PVU-2_RLatLon0.09_PT043H.grib2 2026-05-08 14:54 2.4M
20260508T12Z_MSC_RDPS_Pressure_Sfc_RLatLon0.09_PT043H.grib2 2026-05-08 14:54 499K
20260508T12Z_MSC_RDPS_RadiativeTemp_Sfc_RLatLon0.09_PT043H.grib2 2026-05-08 14:54 388K
20260508T12Z_MSC_RDPS_Rain-Accum1h_Sfc_RLatLon0.09_PT043H.grib2 2026-05-08 14:54 571K
20260508T12Z_MSC_RDPS_Rain-Accum_Sfc_RLatLon0.09_PT043H.grib2 2026-05-08 14:54 1.7M
20260508T12Z_MSC_RDPS_RelativeHumidity_AGL-2m_RLatLon0.09_PT043H.grib2 2026-05-08 14:54 1.0M
20260508T12Z_MSC_RDPS_RelativeHumidity_IsbL-0010_RLatLon0.09_PT043H.grib2 2026-05-08 14:54 568K
20260508T12Z_MSC_RDPS_RelativeHumidity_IsbL-0020_RLatLon0.09_PT043H.grib2 2026-05-08 14:54 645K
20260508T12Z_MSC_RDPS_RelativeHumidity_IsbL-0030_RLatLon0.09_PT043H.grib2 2026-05-08 14:54 630K
20260508T12Z_MSC_RDPS_RelativeHumidity_IsbL-0050_RLatLon0.09_PT043H.grib2 2026-05-08 14:54 354K
20260508T12Z_MSC_RDPS_RelativeHumidity_IsbL-0100_RLatLon0.09_PT043H.grib2 2026-05-08 14:54 282K
20260508T12Z_MSC_RDPS_RelativeHumidity_IsbL-0150_RLatLon0.09_PT043H.grib2 2026-05-08 14:54 420K
20260508T12Z_MSC_RDPS_RelativeHumidity_IsbL-0175_RLatLon0.09_PT043H.grib2 2026-05-08 14:54 471K
20260508T12Z_MSC_RDPS_RelativeHumidity_IsbL-0200_RLatLon0.09_PT043H.grib2 2026-05-08 14:54 540K
20260508T12Z_MSC_RDPS_RelativeHumidity_IsbL-0225_RLatLon0.09_PT043H.grib2 2026-05-08 14:54 614K
20260508T12Z_MSC_RDPS_RelativeHumidity_IsbL-0250_RLatLon0.09_PT043H.grib2 2026-05-08 14:54 693K
20260508T12Z_MSC_RDPS_RelativeHumidity_IsbL-0275_RLatLon0.09_PT043H.grib2 2026-05-08 14:54 721K
20260508T12Z_MSC_RDPS_RelativeHumidity_IsbL-0300_RLatLon0.09_PT043H.grib2 2026-05-08 14:54 754K
20260508T12Z_MSC_RDPS_RelativeHumidity_IsbL-0350_RLatLon0.09_PT043H.grib2 2026-05-08 14:54 767K
20260508T12Z_MSC_RDPS_RelativeHumidity_IsbL-0400_RLatLon0.09_PT043H.grib2 2026-05-08 14:54 785K
20260508T12Z_MSC_RDPS_RelativeHumidity_IsbL-0450_RLatLon0.09_PT043H.grib2 2026-05-08 14:54 794K
20260508T12Z_MSC_RDPS_RelativeHumidity_IsbL-0500_RLatLon0.09_PT043H.grib2 2026-05-08 14:54 800K
20260508T12Z_MSC_RDPS_RelativeHumidity_IsbL-0550_RLatLon0.09_PT043H.grib2 2026-05-08 14:54 813K
20260508T12Z_MSC_RDPS_RelativeHumidity_IsbL-0600_RLatLon0.09_PT043H.grib2 2026-05-08 14:54 834K
20260508T12Z_MSC_RDPS_RelativeHumidity_IsbL-0650_RLatLon0.09_PT043H.grib2 2026-05-08 14:54 851K
20260508T12Z_MSC_RDPS_RelativeHumidity_IsbL-0700_RLatLon0.09_PT043H.grib2 2026-05-08 14:54 884K
20260508T12Z_MSC_RDPS_RelativeHumidity_IsbL-0750_RLatLon0.09_PT043H.grib2 2026-05-08 14:54 928K
20260508T12Z_MSC_RDPS_RelativeHumidity_IsbL-0800_RLatLon0.09_PT043H.grib2 2026-05-08 14:54 1.0M
20260508T12Z_MSC_RDPS_RelativeHumidity_IsbL-0850_RLatLon0.09_PT043H.grib2 2026-05-08 14:54 1.0M
20260508T12Z_MSC_RDPS_RelativeHumidity_IsbL-0875_RLatLon0.09_PT043H.grib2 2026-05-08 14:54 1.1M
20260508T12Z_MSC_RDPS_RelativeHumidity_IsbL-0900_RLatLon0.09_PT043H.grib2 2026-05-08 14:54 1.1M
20260508T12Z_MSC_RDPS_RelativeHumidity_IsbL-0925_RLatLon0.09_PT043H.grib2 2026-05-08 14:54 1.1M
20260508T12Z_MSC_RDPS_RelativeHumidity_IsbL-0950_RLatLon0.09_PT043H.grib2 2026-05-08 14:54 1.1M
20260508T12Z_MSC_RDPS_RelativeHumidity_IsbL-0970_RLatLon0.09_PT043H.grib2 2026-05-08 14:54 1.0M
20260508T12Z_MSC_RDPS_RelativeHumidity_IsbL-0985_RLatLon0.09_PT043H.grib2 2026-05-08 14:54 1.0M
20260508T12Z_MSC_RDPS_RelativeHumidity_IsbL-1000_RLatLon0.09_PT043H.grib2 2026-05-08 14:54 1.0M
20260508T12Z_MSC_RDPS_RelativeHumidity_IsbL-1015_RLatLon0.09_PT043H.grib2 2026-05-08 14:54 1.0M
20260508T12Z_MSC_RDPS_Runoff-Accum_Sfc_RLatLon0.09_PT043H.grib2 2026-05-08 14:54 35K
20260508T12Z_MSC_RDPS_SWEATIndex_Sfc_RLatLon0.09_PT043H.grib2 2026-05-08 14:54 2.5M
20260508T12Z_MSC_RDPS_SeeingIndex_EAtm_RLatLon0.09_PT043H.grib2 2026-05-08 14:54 1.0M
20260508T12Z_MSC_RDPS_SensibleHeatNetFlux_Sfc_RLatLon0.09_PT043H.grib2 2026-05-08 14:54 295K
20260508T12Z_MSC_RDPS_ShowalterIndex_IsbL-0500_RLatLon0.09_PT043H.grib2 2026-05-08 14:54 2.6M
20260508T12Z_MSC_RDPS_SkyTransparencyIndex_EAtm_RLatLon0.09_PT043H.grib2 2026-05-08 14:54 704K
20260508T12Z_MSC_RDPS_Snow-Accum1h_Sfc_RLatLon0.09_PT043H.grib2 2026-05-08 14:54 341K
20260508T12Z_MSC_RDPS_Snow-Accum_Sfc_RLatLon0.09_PT043H.grib2 2026-05-08 14:54 670K
20260508T12Z_MSC_RDPS_SnowDensity_Sfc_RLatLon0.09_PT043H.grib2 2026-05-08 14:54 169K
20260508T12Z_MSC_RDPS_SnowDepth_Sfc_RLatLon0.09_PT043H.grib2 2026-05-08 14:54 621K
20260508T12Z_MSC_RDPS_SoilTemp_DBS-0to10cm_RLatLon0.09_PT043H.grib2 2026-05-08 14:54 236K
20260508T12Z_MSC_RDPS_SoilTemp_Sfc_RLatLon0.09_PT043H.grib2 2026-05-08 14:54 268K
20260508T12Z_MSC_RDPS_SoilVolumetricIceContent_Sfc_RLatLon0.09_PT043H.grib2 2026-05-08 14:54 143K
20260508T12Z_MSC_RDPS_SoilVolumetricWaterContent_DBS-0to10cm_RLatLon0.09_PT043H.grib2 2026-05-08 14:54 291K
20260508T12Z_MSC_RDPS_SoilVolumetricWaterContent_DBS-0to1cm_RLatLon0.09_PT043H.grib2 2026-05-08 14:54 343K
20260508T12Z_MSC_RDPS_SpecificHumidity_AGL-120m_RLatLon0.09_PT043H.grib2 2026-05-08 14:54 494K
20260508T12Z_MSC_RDPS_SpecificHumidity_AGL-2m_RLatLon0.09_PT043H.grib2 2026-05-08 14:54 664K
20260508T12Z_MSC_RDPS_SpecificHumidity_AGL-40m_RLatLon0.09_PT043H.grib2 2026-05-08 14:54 500K
20260508T12Z_MSC_RDPS_SpecificHumidity_AGL-80m_RLatLon0.09_PT043H.grib2 2026-05-08 14:54 495K
20260508T12Z_MSC_RDPS_SpecificHumidity_IsbL-0001_RLatLon0.09_PT043H.grib2 2026-05-08 14:54 356K
20260508T12Z_MSC_RDPS_SpecificHumidity_IsbL-0005_RLatLon0.09_PT043H.grib2 2026-05-08 14:54 372K
20260508T12Z_MSC_RDPS_SpecificHumidity_IsbL-0010_RLatLon0.09_PT043H.grib2 2026-05-08 14:54 400K
20260508T12Z_MSC_RDPS_SpecificHumidity_IsbL-0020_RLatLon0.09_PT043H.grib2 2026-05-08 14:54 494K
20260508T12Z_MSC_RDPS_SpecificHumidity_IsbL-0030_RLatLon0.09_PT043H.grib2 2026-05-08 14:54 375K
20260508T12Z_MSC_RDPS_SpecificHumidity_IsbL-0050_RLatLon0.09_PT043H.grib2 2026-05-08 14:54 485K
20260508T12Z_MSC_RDPS_SpecificHumidity_IsbL-0100_RLatLon0.09_PT043H.grib2 2026-05-08 14:54 415K
20260508T12Z_MSC_RDPS_SpecificHumidity_IsbL-0150_RLatLon0.09_PT043H.grib2 2026-05-08 14:54 460K
20260508T12Z_MSC_RDPS_SpecificHumidity_IsbL-0175_RLatLon0.09_PT043H.grib2 2026-05-08 14:54 433K
20260508T12Z_MSC_RDPS_SpecificHumidity_IsbL-0200_RLatLon0.09_PT043H.grib2 2026-05-08 14:54 467K
20260508T12Z_MSC_RDPS_SpecificHumidity_IsbL-0225_RLatLon0.09_PT043H.grib2 2026-05-08 14:54 473K
20260508T12Z_MSC_RDPS_SpecificHumidity_IsbL-0250_RLatLon0.09_PT043H.grib2 2026-05-08 14:54 523K
20260508T12Z_MSC_RDPS_SpecificHumidity_IsbL-0275_RLatLon0.09_PT043H.grib2 2026-05-08 14:54 481K
20260508T12Z_MSC_RDPS_SpecificHumidity_IsbL-0300_RLatLon0.09_PT043H.grib2 2026-05-08 14:54 450K
20260508T12Z_MSC_RDPS_SpecificHumidity_IsbL-0350_RLatLon0.09_PT043H.grib2 2026-05-08 14:54 441K
20260508T12Z_MSC_RDPS_SpecificHumidity_IsbL-0400_RLatLon0.09_PT043H.grib2 2026-05-08 14:54 526K
20260508T12Z_MSC_RDPS_SpecificHumidity_IsbL-0450_RLatLon0.09_PT043H.grib2 2026-05-08 14:54 464K
20260508T12Z_MSC_RDPS_SpecificHumidity_IsbL-0500_RLatLon0.09_PT043H.grib2 2026-05-08 14:54 517K
20260508T12Z_MSC_RDPS_SpecificHumidity_IsbL-0550_RLatLon0.09_PT043H.grib2 2026-05-08 14:54 587K
20260508T12Z_MSC_RDPS_SpecificHumidity_IsbL-0600_RLatLon0.09_PT043H.grib2 2026-05-08 14:54 640K
20260508T12Z_MSC_RDPS_SpecificHumidity_IsbL-0650_RLatLon0.09_PT043H.grib2 2026-05-08 14:54 561K
20260508T12Z_MSC_RDPS_SpecificHumidity_IsbL-0700_RLatLon0.09_PT043H.grib2 2026-05-08 14:54 608K
20260508T12Z_MSC_RDPS_SpecificHumidity_IsbL-0750_RLatLon0.09_PT043H.grib2 2026-05-08 14:54 666K
20260508T12Z_MSC_RDPS_SpecificHumidity_IsbL-0800_RLatLon0.09_PT043H.grib2 2026-05-08 14:54 756K
20260508T12Z_MSC_RDPS_SpecificHumidity_IsbL-0850_RLatLon0.09_PT043H.grib2 2026-05-08 14:54 821K
20260508T12Z_MSC_RDPS_SpecificHumidity_IsbL-0875_RLatLon0.09_PT043H.grib2 2026-05-08 14:54 838K
20260508T12Z_MSC_RDPS_SpecificHumidity_IsbL-0900_RLatLon0.09_PT043H.grib2 2026-05-08 14:54 845K
20260508T12Z_MSC_RDPS_SpecificHumidity_IsbL-0925_RLatLon0.09_PT043H.grib2 2026-05-08 14:54 845K
20260508T12Z_MSC_RDPS_SpecificHumidity_IsbL-0950_RLatLon0.09_PT043H.grib2 2026-05-08 14:54 845K
20260508T12Z_MSC_RDPS_SpecificHumidity_IsbL-0970_RLatLon0.09_PT043H.grib2 2026-05-08 14:54 699K
20260508T12Z_MSC_RDPS_SpecificHumidity_IsbL-0985_RLatLon0.09_PT043H.grib2 2026-05-08 14:54 690K
20260508T12Z_MSC_RDPS_SpecificHumidity_IsbL-1000_RLatLon0.09_PT043H.grib2 2026-05-08 14:54 685K
20260508T12Z_MSC_RDPS_SpecificHumidity_IsbL-1015_RLatLon0.09_PT043H.grib2 2026-05-08 14:54 678K
20260508T12Z_MSC_RDPS_SpecificHumidity_Sfc_RLatLon0.09_PT043H.grib2 2026-05-08 14:54 306K
20260508T12Z_MSC_RDPS_StormRelativeHelicity_EtaL-10000_RLatLon0.09_PT043H.grib2 2026-05-08 14:54 1.1M
20260508T12Z_MSC_RDPS_StormSeverityIndex_EtaL-10000_RLatLon0.09_PT043H.grib2 2026-05-08 14:54 1.2M
20260508T12Z_MSC_RDPS_Thickness_IsbL-0850to0700_RLatLon0.09_PT043H.grib2 2026-05-08 14:54 249K
20260508T12Z_MSC_RDPS_Thickness_IsbL-1000to0500_RLatLon0.09_PT043H.grib2 2026-05-08 14:54 194K
20260508T12Z_MSC_RDPS_Thickness_IsbL-1000to0850_RLatLon0.09_PT043H.grib2 2026-05-08 14:54 261K
20260508T12Z_MSC_RDPS_TotalCloudCover_Sfc_RLatLon0.09_PT043H.grib2 2026-05-08 14:54 674K
20260508T12Z_MSC_RDPS_TotalTotalsIndex_Sfc_RLatLon0.09_PT043H.grib2 2026-05-08 14:54 2.4M
20260508T12Z_MSC_RDPS_UVIndex-ClearSky_Sfc_RLatLon0.09_PT043H.grib2 2026-05-08 14:54 101K
20260508T12Z_MSC_RDPS_UVIndex_Sfc_RLatLon0.09_PT043H.grib2 2026-05-08 14:54 180K
20260508T12Z_MSC_RDPS_UpwardLongwaveRadiationFlux_NTAtm_RLatLon0.09_PT043H.grib2 2026-05-08 14:54 488K
20260508T12Z_MSC_RDPS_UpwardShortwaveRadiationFlux_NTAtm_RLatLon0.09_PT043H.grib2 2026-05-08 14:54 150K
20260508T12Z_MSC_RDPS_VerticalVelocity_IsbL-0250_RLatLon0.09_PT043H.grib2 2026-05-08 14:54 548K
20260508T12Z_MSC_RDPS_VerticalVelocity_IsbL-0500_RLatLon0.09_PT043H.grib2 2026-05-08 14:54 538K
20260508T12Z_MSC_RDPS_VerticalVelocity_IsbL-0700_RLatLon0.09_PT043H.grib2 2026-05-08 14:54 594K
20260508T12Z_MSC_RDPS_VerticalVelocity_IsbL-0850_RLatLon0.09_PT043H.grib2 2026-05-08 14:54 716K
20260508T12Z_MSC_RDPS_VerticalWindShear_EtaL-6500_RLatLon0.09_PT043H.grib2 2026-05-08 14:54 1.2M
20260508T12Z_MSC_RDPS_WindChill_Sfc_RLatLon0.09_PT043H.grib2 2026-05-08 14:54 1.2M
20260508T12Z_MSC_RDPS_WindDir_AGL-10m_RLatLon0.09_PT043H.grib2 2026-05-08 14:54 970K
20260508T12Z_MSC_RDPS_WindDir_AGL-120m_RLatLon0.09_PT043H.grib2 2026-05-08 14:54 603K
20260508T12Z_MSC_RDPS_WindDir_AGL-40m_RLatLon0.09_PT043H.grib2 2026-05-08 14:54 637K
20260508T12Z_MSC_RDPS_WindDir_AGL-80m_RLatLon0.09_PT043H.grib2 2026-05-08 14:54 616K
20260508T12Z_MSC_RDPS_WindDir_IsbL-0001_RLatLon0.09_PT043H.grib2 2026-05-08 14:54 287K
20260508T12Z_MSC_RDPS_WindDir_IsbL-0005_RLatLon0.09_PT043H.grib2 2026-05-08 14:54 382K
20260508T12Z_MSC_RDPS_WindDir_IsbL-0010_RLatLon0.09_PT043H.grib2 2026-05-08 14:54 395K
20260508T12Z_MSC_RDPS_WindDir_IsbL-0020_RLatLon0.09_PT043H.grib2 2026-05-08 14:54 422K
20260508T12Z_MSC_RDPS_WindDir_IsbL-0030_RLatLon0.09_PT043H.grib2 2026-05-08 14:54 425K
20260508T12Z_MSC_RDPS_WindDir_IsbL-0050_RLatLon0.09_PT043H.grib2 2026-05-08 14:54 445K
20260508T12Z_MSC_RDPS_WindDir_IsbL-0100_RLatLon0.09_PT043H.grib2 2026-05-08 14:54 427K
20260508T12Z_MSC_RDPS_WindDir_IsbL-0150_RLatLon0.09_PT043H.grib2 2026-05-08 14:54 420K
20260508T12Z_MSC_RDPS_WindDir_IsbL-0175_RLatLon0.09_PT043H.grib2 2026-05-08 14:54 444K
20260508T12Z_MSC_RDPS_WindDir_IsbL-0200_RLatLon0.09_PT043H.grib2 2026-05-08 14:54 464K
20260508T12Z_MSC_RDPS_WindDir_IsbL-0225_RLatLon0.09_PT043H.grib2 2026-05-08 14:54 472K
20260508T12Z_MSC_RDPS_WindDir_IsbL-0250_RLatLon0.09_PT043H.grib2 2026-05-08 14:54 472K
20260508T12Z_MSC_RDPS_WindDir_IsbL-0275_RLatLon0.09_PT043H.grib2 2026-05-08 14:54 490K
20260508T12Z_MSC_RDPS_WindDir_IsbL-0300_RLatLon0.09_PT043H.grib2 2026-05-08 14:54 480K
20260508T12Z_MSC_RDPS_WindDir_IsbL-0350_RLatLon0.09_PT043H.grib2 2026-05-08 14:54 504K
20260508T12Z_MSC_RDPS_WindDir_IsbL-0400_RLatLon0.09_PT043H.grib2 2026-05-08 14:54 534K
20260508T12Z_MSC_RDPS_WindDir_IsbL-0450_RLatLon0.09_PT043H.grib2 2026-05-08 14:54 554K
20260508T12Z_MSC_RDPS_WindDir_IsbL-0500_RLatLon0.09_PT043H.grib2 2026-05-08 14:54 569K
20260508T12Z_MSC_RDPS_WindDir_IsbL-0550_RLatLon0.09_PT043H.grib2 2026-05-08 14:54 581K
20260508T12Z_MSC_RDPS_WindDir_IsbL-0600_RLatLon0.09_PT043H.grib2 2026-05-08 14:54 602K
20260508T12Z_MSC_RDPS_WindDir_IsbL-0650_RLatLon0.09_PT043H.grib2 2026-05-08 14:54 635K
20260508T12Z_MSC_RDPS_WindDir_IsbL-0700_RLatLon0.09_PT043H.grib2 2026-05-08 14:54 673K
20260508T12Z_MSC_RDPS_WindDir_IsbL-0750_RLatLon0.09_PT043H.grib2 2026-05-08 14:54 722K
20260508T12Z_MSC_RDPS_WindDir_IsbL-0800_RLatLon0.09_PT043H.grib2 2026-05-08 14:54 798K
20260508T12Z_MSC_RDPS_WindDir_IsbL-0850_RLatLon0.09_PT043H.grib2 2026-05-08 14:54 862K
20260508T12Z_MSC_RDPS_WindDir_IsbL-0875_RLatLon0.09_PT043H.grib2 2026-05-08 14:54 882K
20260508T12Z_MSC_RDPS_WindDir_IsbL-0900_RLatLon0.09_PT043H.grib2 2026-05-08 14:54 899K
20260508T12Z_MSC_RDPS_WindDir_IsbL-0925_RLatLon0.09_PT043H.grib2 2026-05-08 14:54 908K
20260508T12Z_MSC_RDPS_WindDir_IsbL-0950_RLatLon0.09_PT043H.grib2 2026-05-08 14:54 913K
20260508T12Z_MSC_RDPS_WindDir_IsbL-0970_RLatLon0.09_PT043H.grib2 2026-05-08 14:54 918K
20260508T12Z_MSC_RDPS_WindDir_IsbL-0985_RLatLon0.09_PT043H.grib2 2026-05-08 14:54 929K
20260508T12Z_MSC_RDPS_WindDir_IsbL-1000_RLatLon0.09_PT043H.grib2 2026-05-08 14:54 946K
20260508T12Z_MSC_RDPS_WindDir_IsbL-1015_RLatLon0.09_PT043H.grib2 2026-05-08 14:54 963K
20260508T12Z_MSC_RDPS_WindGust-Max_AGL-10m_RLatLon0.09_PT043H.grib2 2026-05-08 14:54 1.0M
20260508T12Z_MSC_RDPS_WindGust-Min_AGL-10m_RLatLon0.09_PT043H.grib2 2026-05-08 14:54 1.0M
20260508T12Z_MSC_RDPS_WindGust_AGL-10m_RLatLon0.09_PT043H.grib2 2026-05-08 14:54 1.0M
20260508T12Z_MSC_RDPS_WindSpeed_AGL-10m_RLatLon0.09_PT043H.grib2 2026-05-08 14:54 1.0M
20260508T12Z_MSC_RDPS_WindSpeed_AGL-120m_RLatLon0.09_PT043H.grib2 2026-05-08 14:54 546K
20260508T12Z_MSC_RDPS_WindSpeed_AGL-40m_RLatLon0.09_PT043H.grib2 2026-05-08 14:54 679K
20260508T12Z_MSC_RDPS_WindSpeed_AGL-80m_RLatLon0.09_PT043H.grib2 2026-05-08 14:54 676K
20260508T12Z_MSC_RDPS_WindSpeed_IsbL-0001_RLatLon0.09_PT043H.grib2 2026-05-08 14:54 252K
20260508T12Z_MSC_RDPS_WindSpeed_IsbL-0005_RLatLon0.09_PT043H.grib2 2026-05-08 14:54 387K
20260508T12Z_MSC_RDPS_WindSpeed_IsbL-0010_RLatLon0.09_PT043H.grib2 2026-05-08 14:54 367K
20260508T12Z_MSC_RDPS_WindSpeed_IsbL-0020_RLatLon0.09_PT043H.grib2 2026-05-08 14:54 325K
20260508T12Z_MSC_RDPS_WindSpeed_IsbL-0030_RLatLon0.09_PT043H.grib2 2026-05-08 14:54 322K
20260508T12Z_MSC_RDPS_WindSpeed_IsbL-0050_RLatLon0.09_PT043H.grib2 2026-05-08 14:54 345K
20260508T12Z_MSC_RDPS_WindSpeed_IsbL-0100_RLatLon0.09_PT043H.grib2 2026-05-08 14:54 477K
20260508T12Z_MSC_RDPS_WindSpeed_IsbL-0150_RLatLon0.09_PT043H.grib2 2026-05-08 14:54 379K
20260508T12Z_MSC_RDPS_WindSpeed_IsbL-0175_RLatLon0.09_PT043H.grib2 2026-05-08 14:54 404K
20260508T12Z_MSC_RDPS_WindSpeed_IsbL-0200_RLatLon0.09_PT043H.grib2 2026-05-08 14:54 438K
20260508T12Z_MSC_RDPS_WindSpeed_IsbL-0225_RLatLon0.09_PT043H.grib2 2026-05-08 14:54 446K
20260508T12Z_MSC_RDPS_WindSpeed_IsbL-0250_RLatLon0.09_PT043H.grib2 2026-05-08 14:54 450K
20260508T12Z_MSC_RDPS_WindSpeed_IsbL-0275_RLatLon0.09_PT043H.grib2 2026-05-08 14:54 470K
20260508T12Z_MSC_RDPS_WindSpeed_IsbL-0300_RLatLon0.09_PT043H.grib2 2026-05-08 14:54 466K
20260508T12Z_MSC_RDPS_WindSpeed_IsbL-0350_RLatLon0.09_PT043H.grib2 2026-05-08 14:54 475K
20260508T12Z_MSC_RDPS_WindSpeed_IsbL-0400_RLatLon0.09_PT043H.grib2 2026-05-08 14:54 478K
20260508T12Z_MSC_RDPS_WindSpeed_IsbL-0450_RLatLon0.09_PT043H.grib2 2026-05-08 14:54 465K
20260508T12Z_MSC_RDPS_WindSpeed_IsbL-0500_RLatLon0.09_PT043H.grib2 2026-05-08 14:54 465K
20260508T12Z_MSC_RDPS_WindSpeed_IsbL-0550_RLatLon0.09_PT043H.grib2 2026-05-08 14:54 465K
20260508T12Z_MSC_RDPS_WindSpeed_IsbL-0600_RLatLon0.09_PT043H.grib2 2026-05-08 14:54 474K
20260508T12Z_MSC_RDPS_WindSpeed_IsbL-0650_RLatLon0.09_PT043H.grib2 2026-05-08 14:54 612K
20260508T12Z_MSC_RDPS_WindSpeed_IsbL-0700_RLatLon0.09_PT043H.grib2 2026-05-08 14:54 635K
20260508T12Z_MSC_RDPS_WindSpeed_IsbL-0750_RLatLon0.09_PT043H.grib2 2026-05-08 14:54 713K
20260508T12Z_MSC_RDPS_WindSpeed_IsbL-0800_RLatLon0.09_PT043H.grib2 2026-05-08 14:54 756K
20260508T12Z_MSC_RDPS_WindSpeed_IsbL-0850_RLatLon0.09_PT043H.grib2 2026-05-08 14:54 813K
20260508T12Z_MSC_RDPS_WindSpeed_IsbL-0875_RLatLon0.09_PT043H.grib2 2026-05-08 14:54 839K
20260508T12Z_MSC_RDPS_WindSpeed_IsbL-0900_RLatLon0.09_PT043H.grib2 2026-05-08 14:54 851K
20260508T12Z_MSC_RDPS_WindSpeed_IsbL-0925_RLatLon0.09_PT043H.grib2 2026-05-08 14:54 865K
20260508T12Z_MSC_RDPS_WindSpeed_IsbL-0950_RLatLon0.09_PT043H.grib2 2026-05-08 14:54 869K
20260508T12Z_MSC_RDPS_WindSpeed_IsbL-0970_RLatLon0.09_PT043H.grib2 2026-05-08 14:54 866K
20260508T12Z_MSC_RDPS_WindSpeed_IsbL-0985_RLatLon0.09_PT043H.grib2 2026-05-08 14:54 861K
20260508T12Z_MSC_RDPS_WindSpeed_IsbL-1000_RLatLon0.09_PT043H.grib2 2026-05-08 14:54 855K
20260508T12Z_MSC_RDPS_WindSpeed_IsbL-1015_RLatLon0.09_PT043H.grib2 2026-05-08 14:54 1.0M
20260508T12Z_MSC_RDPS_WindU_AGL-10m_RLatLon0.09_PT043H.grib2 2026-05-08 14:54 434K
20260508T12Z_MSC_RDPS_WindU_AGL-120m_RLatLon0.09_PT043H.grib2 2026-05-08 14:54 539K
20260508T12Z_MSC_RDPS_WindU_AGL-40m_RLatLon0.09_PT043H.grib2 2026-05-08 14:54 543K
20260508T12Z_MSC_RDPS_WindU_AGL-80m_RLatLon0.09_PT043H.grib2 2026-05-08 14:54 540K
20260508T12Z_MSC_RDPS_WindU_IsbL-0001_RLatLon0.09_PT043H.grib2 2026-05-08 14:54 294K
20260508T12Z_MSC_RDPS_WindU_IsbL-0005_RLatLon0.09_PT043H.grib2 2026-05-08 14:54 288K
20260508T12Z_MSC_RDPS_WindU_IsbL-0010_RLatLon0.09_PT043H.grib2 2026-05-08 14:54 297K
20260508T12Z_MSC_RDPS_WindU_IsbL-0020_RLatLon0.09_PT043H.grib2 2026-05-08 14:54 354K
20260508T12Z_MSC_RDPS_WindU_IsbL-0030_RLatLon0.09_PT043H.grib2 2026-05-08 14:54 313K
20260508T12Z_MSC_RDPS_WindU_IsbL-0050_RLatLon0.09_PT043H.grib2 2026-05-08 14:54 341K
20260508T12Z_MSC_RDPS_WindU_IsbL-0100_RLatLon0.09_PT043H.grib2 2026-05-08 14:54 433K
20260508T12Z_MSC_RDPS_WindU_IsbL-0150_RLatLon0.09_PT043H.grib2 2026-05-08 14:54 370K
20260508T12Z_MSC_RDPS_WindU_IsbL-0175_RLatLon0.09_PT043H.grib2 2026-05-08 14:54 418K
20260508T12Z_MSC_RDPS_WindU_IsbL-0200_RLatLon0.09_PT043H.grib2 2026-05-08 14:54 432K
20260508T12Z_MSC_RDPS_WindU_IsbL-0225_RLatLon0.09_PT043H.grib2 2026-05-08 14:54 438K
20260508T12Z_MSC_RDPS_WindU_IsbL-0250_RLatLon0.09_PT043H.grib2 2026-05-08 14:54 342K
20260508T12Z_MSC_RDPS_WindU_IsbL-0275_RLatLon0.09_PT043H.grib2 2026-05-08 14:54 356K
20260508T12Z_MSC_RDPS_WindU_IsbL-0300_RLatLon0.09_PT043H.grib2 2026-05-08 14:54 452K
20260508T12Z_MSC_RDPS_WindU_IsbL-0350_RLatLon0.09_PT043H.grib2 2026-05-08 14:54 461K
20260508T12Z_MSC_RDPS_WindU_IsbL-0400_RLatLon0.09_PT043H.grib2 2026-05-08 14:54 466K
20260508T12Z_MSC_RDPS_WindU_IsbL-0450_RLatLon0.09_PT043H.grib2 2026-05-08 14:54 469K
20260508T12Z_MSC_RDPS_WindU_IsbL-0500_RLatLon0.09_PT043H.grib2 2026-05-08 14:54 471K
20260508T12Z_MSC_RDPS_WindU_IsbL-0550_RLatLon0.09_PT043H.grib2 2026-05-08 14:54 473K
20260508T12Z_MSC_RDPS_WindU_IsbL-0600_RLatLon0.09_PT043H.grib2 2026-05-08 14:54 464K
20260508T12Z_MSC_RDPS_WindU_IsbL-0650_RLatLon0.09_PT043H.grib2 2026-05-08 14:54 482K
20260508T12Z_MSC_RDPS_WindU_IsbL-0700_RLatLon0.09_PT043H.grib2 2026-05-08 14:54 504K
20260508T12Z_MSC_RDPS_WindU_IsbL-0750_RLatLon0.09_PT043H.grib2 2026-05-08 14:54 534K
20260508T12Z_MSC_RDPS_WindU_IsbL-0800_RLatLon0.09_PT043H.grib2 2026-05-08 14:54 578K
20260508T12Z_MSC_RDPS_WindU_IsbL-0850_RLatLon0.09_PT043H.grib2 2026-05-08 14:54 627K
20260508T12Z_MSC_RDPS_WindU_IsbL-0875_RLatLon0.09_PT043H.grib2 2026-05-08 14:54 644K
20260508T12Z_MSC_RDPS_WindU_IsbL-0900_RLatLon0.09_PT043H.grib2 2026-05-08 14:54 658K
20260508T12Z_MSC_RDPS_WindU_IsbL-0925_RLatLon0.09_PT043H.grib2 2026-05-08 14:54 665K
20260508T12Z_MSC_RDPS_WindU_IsbL-0950_RLatLon0.09_PT043H.grib2 2026-05-08 14:54 665K
20260508T12Z_MSC_RDPS_WindU_IsbL-0970_RLatLon0.09_PT043H.grib2 2026-05-08 14:54 799K
20260508T12Z_MSC_RDPS_WindU_IsbL-0985_RLatLon0.09_PT043H.grib2 2026-05-08 14:54 793K
20260508T12Z_MSC_RDPS_WindU_IsbL-1000_RLatLon0.09_PT043H.grib2 2026-05-08 14:54 834K
20260508T12Z_MSC_RDPS_WindU_IsbL-1015_RLatLon0.09_PT043H.grib2 2026-05-08 14:54 829K
20260508T12Z_MSC_RDPS_WindV_AGL-10m_RLatLon0.09_PT043H.grib2 2026-05-08 14:54 434K
20260508T12Z_MSC_RDPS_WindV_AGL-120m_RLatLon0.09_PT043H.grib2 2026-05-08 14:54 539K
20260508T12Z_MSC_RDPS_WindV_AGL-40m_RLatLon0.09_PT043H.grib2 2026-05-08 14:54 542K
20260508T12Z_MSC_RDPS_WindV_AGL-80m_RLatLon0.09_PT043H.grib2 2026-05-08 14:54 540K
20260508T12Z_MSC_RDPS_WindV_IsbL-0001_RLatLon0.09_PT043H.grib2 2026-05-08 14:54 247K
20260508T12Z_MSC_RDPS_WindV_IsbL-0005_RLatLon0.09_PT043H.grib2 2026-05-08 14:54 288K
20260508T12Z_MSC_RDPS_WindV_IsbL-0010_RLatLon0.09_PT043H.grib2 2026-05-08 14:54 299K
20260508T12Z_MSC_RDPS_WindV_IsbL-0020_RLatLon0.09_PT043H.grib2 2026-05-08 14:54 315K
20260508T12Z_MSC_RDPS_WindV_IsbL-0030_RLatLon0.09_PT043H.grib2 2026-05-08 14:54 313K
20260508T12Z_MSC_RDPS_WindV_IsbL-0050_RLatLon0.09_PT043H.grib2 2026-05-08 14:54 340K
20260508T12Z_MSC_RDPS_WindV_IsbL-0100_RLatLon0.09_PT043H.grib2 2026-05-08 14:54 429K
20260508T12Z_MSC_RDPS_WindV_IsbL-0150_RLatLon0.09_PT043H.grib2 2026-05-08 14:54 393K
20260508T12Z_MSC_RDPS_WindV_IsbL-0175_RLatLon0.09_PT043H.grib2 2026-05-08 14:54 417K
20260508T12Z_MSC_RDPS_WindV_IsbL-0200_RLatLon0.09_PT043H.grib2 2026-05-08 14:54 332K
20260508T12Z_MSC_RDPS_WindV_IsbL-0225_RLatLon0.09_PT043H.grib2 2026-05-08 14:54 337K
20260508T12Z_MSC_RDPS_WindV_IsbL-0250_RLatLon0.09_PT043H.grib2 2026-05-08 14:54 366K
20260508T12Z_MSC_RDPS_WindV_IsbL-0275_RLatLon0.09_PT043H.grib2 2026-05-08 14:54 380K
20260508T12Z_MSC_RDPS_WindV_IsbL-0300_RLatLon0.09_PT043H.grib2 2026-05-08 14:54 376K
20260508T12Z_MSC_RDPS_WindV_IsbL-0350_RLatLon0.09_PT043H.grib2 2026-05-08 14:54 360K
20260508T12Z_MSC_RDPS_WindV_IsbL-0400_RLatLon0.09_PT043H.grib2 2026-05-08 14:54 363K
20260508T12Z_MSC_RDPS_WindV_IsbL-0450_RLatLon0.09_PT043H.grib2 2026-05-08 14:54 365K
20260508T12Z_MSC_RDPS_WindV_IsbL-0500_RLatLon0.09_PT043H.grib2 2026-05-08 14:54 468K
20260508T12Z_MSC_RDPS_WindV_IsbL-0550_RLatLon0.09_PT043H.grib2 2026-05-08 14:54 468K
20260508T12Z_MSC_RDPS_WindV_IsbL-0600_RLatLon0.09_PT043H.grib2 2026-05-08 14:54 478K
20260508T12Z_MSC_RDPS_WindV_IsbL-0650_RLatLon0.09_PT043H.grib2 2026-05-08 14:54 494K
20260508T12Z_MSC_RDPS_WindV_IsbL-0700_RLatLon0.09_PT043H.grib2 2026-05-08 14:54 499K
20260508T12Z_MSC_RDPS_WindV_IsbL-0750_RLatLon0.09_PT043H.grib2 2026-05-08 14:54 529K
20260508T12Z_MSC_RDPS_WindV_IsbL-0800_RLatLon0.09_PT043H.grib2 2026-05-08 14:54 573K
20260508T12Z_MSC_RDPS_WindV_IsbL-0850_RLatLon0.09_PT043H.grib2 2026-05-08 14:54 623K
20260508T12Z_MSC_RDPS_WindV_IsbL-0875_RLatLon0.09_PT043H.grib2 2026-05-08 14:54 640K
20260508T12Z_MSC_RDPS_WindV_IsbL-0900_RLatLon0.09_PT043H.grib2 2026-05-08 14:54 653K
20260508T12Z_MSC_RDPS_WindV_IsbL-0925_RLatLon0.09_PT043H.grib2 2026-05-08 14:54 662K
20260508T12Z_MSC_RDPS_WindV_IsbL-0950_RLatLon0.09_PT043H.grib2 2026-05-08 14:54 662K
20260508T12Z_MSC_RDPS_WindV_IsbL-0970_RLatLon0.09_PT043H.grib2 2026-05-08 14:54 799K
20260508T12Z_MSC_RDPS_WindV_IsbL-0985_RLatLon0.09_PT043H.grib2 2026-05-08 14:54 793K
20260508T12Z_MSC_RDPS_WindV_IsbL-1000_RLatLon0.09_PT043H.grib2 2026-05-08 14:54 835K
20260508T12Z_MSC_RDPS_WindV_IsbL-1015_RLatLon0.09_PT043H.grib2 2026-05-08 14:54 829K